This demonstration page uses our WeatherBlox Daily Observations layout. Learn more.

Left ArrowRight Arrow

34.02893, -84.19858

Hourly Observations for June 18, 2020

Temp ( °F °C ) Dew Point ( °F °C ) Humidity (%) Winds ( mph kmh ) Pressure ( in mb ) Visibility ( mi km ) Precip ( " mm )
12:53 am 00:53 Mostly Clear 61 16.1 59 15 93 93 SSW 3 6 30.05 1018 10 16 0.00 0.00
1:53 am 01:53 Cloudy 63 17.2 61 16.1 93 93 Calm 30.04 1017 10 16 0.00 0.00
2:53 am 02:53 Cloudy 62 16.7 60 15.6 93 93 Calm 30.03 1017 10 16 0.00 0.00
3:53 am 03:53 Cloudy 63 17.2 61 16.1 93 93 Calm 30.02 1017 10 16 0.00 0.00
4:53 am 04:53 Clear 60 15.6 59 15 96 96 Calm 30.02 1017 10 16 0.00 0.00
5:53 am 05:53 Clear 59 15 59 15 100 100 Calm 30.02 1017 8 13 0.00 0.00
6:53 am 06:53 Sunny 59 15 58 14.4 96 96 Calm 30.04 1017 8 13 0.00 0.00
7:53 am 07:53 Sunny 65 18.3 61 16.1 87 87 Calm 30.05 1018 10 16 0.00 0.00
8:53 am 08:53 Sunny 70 21.1 61 16.1 73 73 NNW 7 11 30.07 1018 10 16 0.00 0.00
9:53 am 09:53 Sunny 72 22.2 62 16.7 71 71 NNW 8 13 30.08 1019 10 16 0.00 0.00
10:53 am 10:53 Partly Cloudy 72 22.2 62 16.7 71 71 N 5 7 30.08 1019 10 16 0.00 0.00
11:53 am 11:53 Sunny 74 23.3 61 16.1 64 64 W 5 7 30.08 1019 10 16 0.00 0.00
12:53 pm 12:53 Cloudy 74 23.3 61 16.1 64 64 VRB 5 7 30.06 1018 10 16 0.00 0.00
1:53 pm 13:53 Mostly Cloudy 76 24.4 60 15.6 58 58 VRB 5 7 30.05 1018 10 16 0.00 0.00
2:53 pm 14:53 Partly Cloudy 79 26.1 60 15.6 52 52 VRB 5 7 30.03 1017 10 16 0.00 0.00
3:53 pm 15:53 Cloudy 78 25.6 60 15.6 54 54 WNW 7 11 30.02 1017 10 16 0.00 0.00
4:53 pm 16:53 Mostly Sunny 79 26.1 60 15.6 52 52 VRB 3 6 30.01 1016 10 16 0.00 0.00
5:53 pm 17:53 Mostly Sunny 79 26.1 60 15.6 52 52 NW 8 13 30.00 1016 10 16 0.00 0.00
6:53 pm 18:53 Sunny 80 26.7 60 15.6 51 51 WNW 8 13 30.00 1016 10 16 0.00 0.00
7:53 pm 19:53 Sunny 78 25.6 59 15 52 52 WNW 7 11 30.01 1016 10 16 0.00 0.00
8:53 pm 20:53 Clear 74 23.3 61 16.1 64 64 WNW 5 7 30.01 1016 10 16 0.00 0.00
9:53 pm 21:53 Clear 69 20.6 63 17.2 81 81 Calm 30.02 1017 10 16 0.00 0.00
10:53 pm 22:53 Clear 67 19.4 63 17.2 87 87 Calm 30.05 1018 10 16 0.00 0.00
11:53 pm 23:53 Clear 66 18.9 63 17.2 90 90 Calm 30.05 1018 10 16 0.00 0.00

Powered by AerisWeather